Weather Roundup
Issued by NWS Chicago, IL

Home | Current Version | Previous Version | Text Only | Print | Product List | Glossary On
Versions: 1 2 3 4 5 6 7 8 9 10 11 12 13 14 15 16 17 18 19 20 21 22 23 24 25 26 27 28 29 30 31 32 33 34 35 36 37 38 39 40 41 42 43 44 45 46 47 48 49 50
000
NZUS59 KLOT 081008
HRRLOT

CHICAGO AREA WEATHER ROUNDUP
NATIONAL WEATHER SERVICE CHICAGO/ROMEOVILLE IL
400 AM CST MON FEB 08 2016

NOTE: "FAIR" INDICATES FEW OR NO CLOUDS BELOW 12,000 FEET WITH NO
SIGNIFICANT WEATHER AND/OR OBSTRUCTIONS TO VISIBILITY.

* THESE STATIONS ARE NOT UNDER NWS QUALITY CONTROL. THEY ALSO MAY NOT
  REPORT WEATHER SUCH AS PRECIPITATION OR FOG.

ILZ005-006-012>014-019>023-081100-
NORTHEAST ILLINOIS

CITY           SKY/WX    TMP DP  RH WIND       PRES   REMARKS
OHARE          PTCLDY    29  26  89 SW6       29.61F WCI  23
MIDWAY         PTCLDY    31  25  78 SW6       29.63F WCI  25
AURORA         LGT SNOW  33  30  88 SW8       29.63S FOG     WCI  26
LANSING*       CLEAR     29  26  88 SW5       29.64F WCI  23
WAUKEGAN       CLOUDY    30  28  92 CALM      29.60F
DUPAGE AIRPORT MOCLDY    29  25  85 SW7       29.61F WCI  22
WHEELING       PTCLDY    26  24  92 S5        29.62F WCI  20
KANKAKEE*      CLEAR     32  28  84 W8        29.66F WCI  24
MORRIS*        CLOUDY    31  29  90 W7        29.61S WCI  24
LEWIS AIRPORT* PTCLDY    29  26  89 SW8       29.63F WCI  21
$$

WIZ051-052-058>065-066-070>072-081100-
SOUTHEAST WISCONSIN

CITY           SKY/WX    TMP DP  RH WIND       PRES   REMARKS
MILWAUKEE      MOCLDY    31  27  85 SW6       29.58F WCI  25
KENOSHA*       CLOUDY    32  28  85 SW9       29.59F WCI  24
RACINE*        CLOUDY    31  26  82 SW7       29.60F WCI  24
BURLINGTON     CLOUDY    31  28  90 SW9       29.59S WCI  23
WAUKESHA       LGT SNOW  30  30 100 SW5       29.58S VSB 3/4 WCI  25
$$

INZ001>003-010>013-019-020-081100-
NORTHWEST INDIANA

CITY           SKY/WX    TMP DP  RH WIND       PRES   REMARKS
GARY*          NOT AVBL
MICHIGAN CITY* NOT AVBL
RENSSELAER*    NOT AVBL
VALPARAISO     CLEAR     28  24  85 CALM      29.64F
$$

LMZ740>746-081100-
SOUTHERN LAKE MICHIGAN

STATION/POSITION TIME  SKY/WX   TEMP WIND        PRES    VSBY
                                AIR  DIR/SP/G
                 (UTC)          (F)  (DEG/KT/KT) (MB)    (MI)
HARRISON CRIB    0900            34  260/ 15/ 17   N/A
BURNHAM HARBOR   1000            33  270/  6/ 10   N/A
CALUMET HARBOR   0900            31  220/  5/  7 1003.4F
BURNS HARBOR     0900            34  220/  8/ 10 1004.7F
MICHIGAN CITY    0900            32  180/  9/ 10   N/A
$$

ABBREVIATIONS USED IN REMARKS
   TC - TEMPERATURE IN CELSIUS
  WCI - WIND CHILL INDEX
   HX - HEAT INDEX
  VSB - VISIBILITY
$$



USA.gov is the U.S. government's official web portal to all federal, state and local government web resources and services.